SBI015 UWGG-URWW

Flight info

Callsign SBI015
Flight time 1h 14m
Altitude 37000
Route OKSUD2U OKSUD DCT UNLAK T689 NIMTA W21 NATIT NATIT2J
Aircraft A320/M-SDE3FGHIRWY/LB1

Departure

Time 2026-04-23 12:38
Airport Nizhny Novgorod / Strigino International Airport (UWGG)

Arrival

Time 2026-04-23 13:53
Airport Volgograd International Airport (URWW)
Time Latitude Longitude Altitude Speed Heading
2026-04-23 11:38 56.21981 43.78865 266 ft 0 kts 101°
2026-04-23 12:25 56.21981 43.78864 266 ft 1 kts 101°
2026-04-23 12:25 56.21984 43.78837 266 ft 3 kts 99°
2026-04-23 12:25 56.21987 43.78801 266 ft 3 kts 96°
2026-04-23 12:26 56.21989 43.78765 266 ft 3 kts 91°
2026-04-23 12:26 56.21988 43.78730 266 ft 2 kts 84°
2026-04-23 12:26 56.21988 43.78714 266 ft 1 kts 83°
2026-04-23 12:26 56.21987 43.78713 266 ft 0 kts 83°
2026-04-23 12:29 56.21988 43.78714 266 ft 1 kts 83°
2026-04-23 12:30 56.21994 43.78721 266 ft 2 kts 32°
2026-04-23 12:30 56.22011 43.78713 266 ft 4 kts 331°
2026-04-23 12:30 56.22044 43.78683 266 ft 7 kts 343°
2026-04-23 12:30 56.22082 43.78687 266 ft 6 kts
2026-04-23 12:31 56.22132 43.78701 266 ft 9 kts
2026-04-23 12:31 56.22206 43.78728 266 ft 13 kts 13°
2026-04-23 12:31 56.22303 43.78765 266 ft 16 kts
2026-04-23 12:31 56.22408 43.78803 266 ft 12 kts 15°
2026-04-23 12:32 56.22475 43.78854 266 ft 10 kts 14°
2026-04-23 12:32 56.22535 43.78876 266 ft 8 kts 11°
2026-04-23 12:32 56.22587 43.78895 266 ft 7 kts 11°
2026-04-23 12:32 56.22656 43.78920 266 ft 14 kts 13°
2026-04-23 12:33 56.22779 43.78969 266 ft 22 kts 13°
2026-04-23 12:33 56.22925 43.79021 266 ft 18 kts 11°
2026-04-23 12:33 56.23039 43.79062 266 ft 16 kts 11°
2026-04-23 12:33 56.23164 43.79107 266 ft 21 kts 12°
2026-04-23 12:34 56.23329 43.79168 266 ft 27 kts 11°
2026-04-23 12:34 56.23495 43.79229 266 ft 23 kts
2026-04-23 12:34 56.23647 43.79244 266 ft 21 kts
2026-04-23 12:34 56.23784 43.79254 266 ft 18 kts
2026-04-23 12:35 56.23894 43.79262 266 ft 12 kts
2026-04-23 12:35 56.23969 43.79270 266 ft 10 kts
2026-04-23 12:35 56.24032 43.79259 266 ft 8 kts 340°
2026-04-23 12:35 56.24073 43.79206 266 ft 7 kts 313°
2026-04-23 12:36 56.24094 43.79145 266 ft 5 kts 301°
2026-04-23 12:36 56.24115 43.79081 267 ft 5 kts 296°
2026-04-23 12:36 56.24114 43.79038 268 ft 2 kts 257°
2026-04-23 12:36 56.24106 43.79011 268 ft 5 kts 236°
2026-04-23 12:37 56.24081 43.78982 268 ft 0 kts 201°
2026-04-23 12:37 56.24079 43.78982 268 ft 2 kts 197°
2026-04-23 12:37 56.23937 43.78930 267 ft 53 kts 190°
2026-04-23 12:38 56.23345 43.78709 266 ft 116 kts 192°
2026-04-23 12:38 56.22398 43.78366 283 ft 160 kts 192°
2026-04-23 12:38 56.21295 43.77929 834 ft 163 kts 193°
2026-04-23 12:38 56.20199 43.77513 1653 ft 156 kts 192°
2026-04-23 12:39 56.19147 43.77196 2365 ft 154 kts 185°
2026-04-23 12:39 56.18087 43.77881 2713 ft 182 kts 145°
2026-04-23 12:39 56.17151 43.79645 2939 ft 208 kts 135°
2026-04-23 12:39 56.16184 43.81772 3220 ft 232 kts 133°
2026-04-23 12:40 56.15102 43.84120 3662 ft 253 kts 134°
2026-04-23 12:40 56.13933 43.86543 4463 ft 259 kts 135°
2026-04-23 12:40 56.12715 43.88956 5316 ft 263 kts 136°
2026-04-23 12:40 56.11467 43.91333 6168 ft 266 kts 137°
2026-04-23 12:41 56.10170 43.93737 7035 ft 268 kts 138°
2026-04-23 12:41 56.08847 43.96140 7879 ft 272 kts 139°
2026-04-23 12:41 56.07495 43.98567 8691 ft 277 kts 139°
2026-04-23 12:41 56.06125 44.01015 9482 ft 281 kts 139°
2026-04-23 12:42 56.04700 44.03550 9894 ft 299 kts 139°
2026-04-23 12:42 56.03166 44.06272 10191 ft 320 kts 139°
2026-04-23 12:42 56.01586 44.09088 10794 ft 328 kts 139°
2026-04-23 12:42 55.99962 44.11991 11515 ft 332 kts 139°
2026-04-23 12:43 55.98323 44.14919 12260 ft 335 kts 139°
2026-04-23 12:43 55.96661 44.17878 12997 ft 338 kts 139°
2026-04-23 12:43 55.94982 44.20858 13656 ft 342 kts 139°
2026-04-23 12:43 55.93285 44.23866 14270 ft 346 kts 139°
2026-04-23 12:44 55.91484 44.26708 14872 ft 345 kts 150°
2026-04-23 12:44 55.89346 44.28434 15459 ft 342 kts 169°
2026-04-23 12:44 55.86985 44.28893 16067 ft 341 kts 181°
2026-04-23 12:44 55.84603 44.29000 16686 ft 344 kts 182°
2026-04-23 12:45 55.82190 44.29090 17314 ft 347 kts 182°
2026-04-23 12:45 55.79763 44.29177 17896 ft 350 kts 182°
2026-04-23 12:45 55.77311 44.29271 18442 ft 353 kts 182°
2026-04-23 12:45 55.74879 44.29373 18975 ft 355 kts 182°
2026-04-23 12:46 55.72396 44.29480 19511 ft 358 kts 182°
2026-04-23 12:46 55.69889 44.29589 20018 ft 360 kts 182°
2026-04-23 12:46 55.67374 44.29696 20509 ft 363 kts 182°
2026-04-23 12:46 55.64838 44.29806 21009 ft 366 kts 182°
2026-04-23 12:47 55.62274 44.29920 21498 ft 369 kts 182°
2026-04-23 12:47 55.60567 44.29995 21809 ft 371 kts 182°
2026-04-23 12:47 55.57961 44.30106 22283 ft 374 kts 182°
2026-04-23 12:47 55.55350 44.30213 22750 ft 377 kts 182°
2026-04-23 12:48 55.52721 44.30318 23168 ft 379 kts 182°
2026-04-23 12:48 55.50071 44.30428 23549 ft 381 kts 182°
2026-04-23 12:48 55.47407 44.30543 23912 ft 384 kts 182°
2026-04-23 12:48 55.44719 44.30663 24286 ft 387 kts 182°
2026-04-23 12:49 55.42064 44.30778 24666 ft 388 kts 182°
2026-04-23 12:49 55.39357 44.30893 25076 ft 389 kts 182°
2026-04-23 12:49 55.36642 44.31004 25465 ft 391 kts 182°
2026-04-23 12:49 55.33919 44.31116 25846 ft 392 kts 182°
2026-04-23 12:50 55.31177 44.31230 26218 ft 394 kts 182°
2026-04-23 12:50 55.28427 44.31344 26580 ft 396 kts 182°
2026-04-23 12:50 55.25661 44.31455 26941 ft 398 kts 182°
2026-04-23 12:50 55.22889 44.31567 27295 ft 399 kts 182°
2026-04-23 12:51 55.20095 44.31680 27661 ft 401 kts 182°
2026-04-23 12:51 55.17290 44.31798 28008 ft 403 kts 182°
2026-04-23 12:51 55.14502 44.31916 28351 ft 405 kts 182°
2026-04-23 12:51 55.11681 44.32035 28646 ft 407 kts 182°
2026-04-23 12:52 55.08823 44.32153 28964 ft 409 kts 182°
2026-04-23 12:52 55.05963 44.32267 29286 ft 411 kts 182°
2026-04-23 12:52 55.03133 44.32383 29577 ft 413 kts 182°
2026-04-23 12:52 55.00250 44.32503 29808 ft 415 kts 182°
2026-04-23 12:53 54.97355 44.32624 30037 ft 417 kts 182°
2026-04-23 12:53 54.94440 44.32740 30253 ft 419 kts 182°
2026-04-23 12:53 54.91501 44.32851 30472 ft 422 kts 182°
2026-04-23 12:53 54.88564 44.32968 30734 ft 423 kts 182°
2026-04-23 12:54 54.85655 44.33093 31037 ft 423 kts 182°
2026-04-23 12:54 54.82708 44.33221 31334 ft 423 kts 182°
2026-04-23 12:54 54.79758 44.33346 31616 ft 424 kts 182°
2026-04-23 12:54 54.76805 44.33468 31881 ft 425 kts 182°
2026-04-23 12:55 54.73839 44.33584 32161 ft 425 kts 182°
2026-04-23 12:55 54.70879 44.33700 32444 ft 426 kts 182°
2026-04-23 12:55 54.67910 44.33817 32727 ft 426 kts 182°
2026-04-23 12:55 54.64935 44.33940 33008 ft 427 kts 181°
2026-04-23 12:56 54.61961 44.34063 33300 ft 428 kts 181°
2026-04-23 12:56 54.58982 44.34182 33554 ft 428 kts 181°
2026-04-23 12:56 54.56019 44.34300 33765 ft 429 kts 181°
2026-04-23 12:56 54.53028 44.34420 33985 ft 430 kts 181°
2026-04-23 12:57 54.50026 44.34541 34196 ft 431 kts 181°
2026-04-23 12:57 54.47012 44.34659 34404 ft 432 kts 181°
2026-04-23 12:57 54.44045 44.34774 34599 ft 432 kts 181°
2026-04-23 12:57 54.41027 44.34889 34782 ft 433 kts 181°
2026-04-23 12:58 54.38015 44.35003 34980 ft 434 kts 181°
2026-04-23 12:58 54.34993 44.35121 35189 ft 434 kts 181°
2026-04-23 12:58 54.31966 44.35243 35377 ft 435 kts 181°
2026-04-23 12:58 54.28936 44.35366 35561 ft 436 kts 181°
2026-04-23 12:59 54.25904 44.35491 35739 ft 436 kts 181°
2026-04-23 12:59 54.22871 44.35615 35917 ft 437 kts 181°
2026-04-23 12:59 54.19823 44.35741 36100 ft 437 kts 181°
2026-04-23 12:59 54.16781 44.35863 36281 ft 437 kts 181°
2026-04-23 13:00 54.13770 44.35979 36434 ft 438 kts 181°
2026-04-23 13:00 54.10718 44.36096 36475 ft 437 kts 181°
2026-04-23 13:00 54.04642 44.36331 36482 ft 436 kts 181°
2026-04-23 13:01 53.98574 44.36576 36482 ft 435 kts 181°
2026-04-23 13:01 53.92514 44.36820 36488 ft 435 kts 181°
2026-04-23 13:02 53.86460 44.37055 36487 ft 435 kts 181°
2026-04-23 13:02 53.80427 44.37284 36486 ft 435 kts 181°
2026-04-23 13:03 53.74347 44.37517 36491 ft 435 kts 181°
2026-04-23 13:03 53.68321 44.37746 36484 ft 435 kts 181°
2026-04-23 13:04 53.62261 44.37977 36498 ft 435 kts 181°
2026-04-23 13:04 53.56196 44.38204 36502 ft 435 kts 181°
2026-04-23 13:05 53.50179 44.38433 36507 ft 435 kts 181°
2026-04-23 13:05 53.44105 44.38668 36510 ft 435 kts 181°
2026-04-23 13:06 53.34996 44.39020 36503 ft 435 kts 181°
2026-04-23 13:07 53.28972 44.39247 36508 ft 435 kts 181°
2026-04-23 13:07 53.22916 44.39479 36524 ft 435 kts 181°
2026-04-23 13:08 53.16871 44.39709 36528 ft 434 kts 181°
2026-04-23 13:08 53.10815 44.39924 36526 ft 434 kts 181°
2026-04-23 13:09 53.04764 44.40141 36530 ft 434 kts 181°
2026-04-23 13:09 52.98716 44.40375 36531 ft 435 kts 181°
2026-04-23 13:10 52.92690 44.40605 36543 ft 434 kts 181°
2026-04-23 13:10 52.86630 44.40823 36546 ft 435 kts 181°
2026-04-23 13:11 52.80614 44.41050 36550 ft 435 kts 181°
2026-04-23 13:11 52.74553 44.41283 36547 ft 434 kts 181°
2026-04-23 13:12 52.68502 44.41502 36533 ft 434 kts 181°
2026-04-23 13:12 52.62487 44.41712 36539 ft 435 kts 181°
2026-04-23 13:13 52.56424 44.41937 36545 ft 435 kts 181°
2026-04-23 13:13 52.50375 44.42156 36556 ft 435 kts 181°
2026-04-23 13:14 52.44313 44.42374 36555 ft 435 kts 181°
2026-04-23 13:14 52.38294 44.42601 36565 ft 435 kts 181°
2026-04-23 13:15 52.32247 44.42821 36550 ft 434 kts 181°
2026-04-23 13:15 52.26188 44.43037 36568 ft 435 kts 181°
2026-04-23 13:16 52.20137 44.43257 36571 ft 435 kts 181°
2026-04-23 13:16 52.14087 44.43479 36581 ft 435 kts 181°
2026-04-23 13:17 52.08038 44.43683 36582 ft 435 kts 181°
2026-04-23 13:17 52.01977 44.43894 36585 ft 435 kts 181°
2026-04-23 13:18 51.95954 44.44115 36592 ft 435 kts 181°
2026-04-23 13:18 51.89898 44.44331 36591 ft 435 kts 181°
2026-04-23 13:19 51.83840 44.44552 36603 ft 435 kts 181°
2026-04-23 13:19 51.77784 44.44768 36600 ft 435 kts 181°
2026-04-23 13:20 51.71730 44.44971 36599 ft 435 kts 181°
2026-04-23 13:20 51.65699 44.45177 36589 ft 435 kts 181°
2026-04-23 13:21 51.59639 44.45396 36605 ft 435 kts 181°
2026-04-23 13:21 51.53581 44.45608 36609 ft 435 kts 181°
2026-04-23 13:22 51.47523 44.45825 36613 ft 435 kts 181°
2026-04-23 13:22 51.41496 44.46032 36610 ft 435 kts 181°
2026-04-23 13:23 51.35428 44.46255 36602 ft 435 kts 181°
2026-04-23 13:23 51.29372 44.46461 36602 ft 435 kts 181°
2026-04-23 13:24 51.23314 44.46662 36610 ft 435 kts 181°
2026-04-23 13:24 51.17287 44.46865 36612 ft 435 kts 181°
2026-04-23 13:25 51.11239 44.46730 36618 ft 434 kts 186°
2026-04-23 13:25 51.05254 44.46064 36623 ft 433 kts 187°
2026-04-23 13:26 50.99232 44.45339 36610 ft 433 kts 187°
2026-04-23 13:26 50.93202 44.44734 36625 ft 433 kts 186°
2026-04-23 13:27 50.87208 44.44204 36621 ft 433 kts 186°
2026-04-23 13:27 50.81187 44.43675 36631 ft 433 kts 186°
2026-04-23 13:28 50.75160 44.43123 36632 ft 433 kts 186°
2026-04-23 13:28 50.69137 44.42560 36635 ft 433 kts 186°
2026-04-23 13:29 50.63145 44.42002 35915 ft 439 kts 186°
2026-04-23 13:29 50.60061 44.41708 34855 ft 448 kts 186°
2026-04-23 13:29 50.56952 44.41416 34352 ft 444 kts 186°
2026-04-23 13:29 50.54910 44.41229 33999 ft 441 kts 186°
2026-04-23 13:30 50.51849 44.40953 33409 ft 439 kts 186°
2026-04-23 13:30 50.47838 44.40592 32689 ft 432 kts 186°
2026-04-23 13:30 50.44845 44.40326 32162 ft 426 kts 185°
2026-04-23 13:30 50.42886 44.40152 31811 ft 423 kts 185°
2026-04-23 13:31 50.39966 44.39893 31311 ft 418 kts 185°
2026-04-23 13:31 50.37063 44.39628 30799 ft 414 kts 185°
2026-04-23 13:31 50.34202 44.39363 30302 ft 410 kts 185°
2026-04-23 13:31 50.31358 44.39100 29803 ft 406 kts 185°
2026-04-23 13:32 50.28553 44.38842 29263 ft 402 kts 185°
2026-04-23 13:32 50.25783 44.38593 28801 ft 396 kts 185°
2026-04-23 13:32 50.23054 44.38353 28343 ft 390 kts 185°
2026-04-23 13:32 50.20364 44.38114 27898 ft 384 kts 185°
2026-04-23 13:33 50.17712 44.37873 27454 ft 378 kts 186°
2026-04-23 13:33 50.15130 44.37637 27039 ft 373 kts 186°
2026-04-23 13:33 50.12555 44.37406 26635 ft 367 kts 186°
2026-04-23 13:33 50.10014 44.37178 26225 ft 362 kts 186°
2026-04-23 13:34 50.07510 44.36947 25831 ft 357 kts 186°
2026-04-23 13:34 50.05038 44.36720 25431 ft 353 kts 186°
2026-04-23 13:34 50.02598 44.36498 25026 ft 349 kts 186°
2026-04-23 13:34 50.00182 44.36279 24616 ft 345 kts 186°
2026-04-23 13:35 49.97824 44.36070 24195 ft 342 kts 187°
2026-04-23 13:35 49.95449 44.35861 23788 ft 339 kts 187°
2026-04-23 13:35 49.93099 44.35649 23372 ft 337 kts 187°
2026-04-23 13:35 49.90765 44.35434 22893 ft 334 kts 187°
2026-04-23 13:36 49.88453 44.35222 22468 ft 331 kts 187°
2026-04-23 13:36 49.86188 44.35017 22058 ft 327 kts 187°
2026-04-23 13:36 49.83919 44.34814 21645 ft 324 kts 187°
2026-04-23 13:36 49.81670 44.34617 21240 ft 321 kts 187°
2026-04-23 13:37 49.79448 44.34423 20840 ft 318 kts 187°
2026-04-23 13:37 49.77239 44.34230 20445 ft 316 kts 188°
2026-04-23 13:37 49.75074 44.34039 20056 ft 313 kts 188°
2026-04-23 13:37 49.72909 44.33848 19677 ft 311 kts 188°
2026-04-23 13:38 49.70749 44.33654 19298 ft 309 kts 188°
2026-04-23 13:38 49.68607 44.33460 18923 ft 307 kts 188°
2026-04-23 13:38 49.66471 44.33268 18532 ft 306 kts 188°
2026-04-23 13:38 49.64345 44.33080 18164 ft 305 kts 188°
2026-04-23 13:39 49.62258 44.32895 17763 ft 304 kts 188°
2026-04-23 13:39 49.60153 44.32708 17369 ft 302 kts 188°
2026-04-23 13:39 49.58060 44.32522 16980 ft 300 kts 188°
2026-04-23 13:39 49.55974 44.32367 16593 ft 300 kts 186°
2026-04-23 13:40 49.53885 44.32341 16220 ft 299 kts 184°
2026-04-23 13:40 49.51795 44.32386 15832 ft 299 kts 184°
2026-04-23 13:40 49.49715 44.32449 15458 ft 299 kts 183°
2026-04-23 13:40 49.47662 44.32506 15084 ft 299 kts 183°
2026-04-23 13:41 49.45574 44.32558 14704 ft 298 kts 183°
2026-04-23 13:41 49.43498 44.32603 14329 ft 298 kts 183°
2026-04-23 13:41 49.41420 44.32640 13952 ft 298 kts 183°
2026-04-23 13:41 49.39347 44.32673 13574 ft 298 kts 183°
2026-04-23 13:42 49.37266 44.32704 13163 ft 298 kts 183°
2026-04-23 13:42 49.35196 44.32734 12771 ft 297 kts 183°
2026-04-23 13:42 49.33159 44.32765 12399 ft 295 kts 183°
2026-04-23 13:42 49.31108 44.32795 12020 ft 293 kts 183°
2026-04-23 13:43 49.29086 44.32823 11817 ft 286 kts 183°
2026-04-23 13:43 49.27109 44.32849 11489 ft 284 kts 183°
2026-04-23 13:43 49.25135 44.32877 11120 ft 283 kts 183°
2026-04-23 13:43 49.23170 44.32908 10780 ft 281 kts 183°
2026-04-23 13:44 49.21221 44.32939 10433 ft 279 kts 183°
2026-04-23 13:44 49.19282 44.32968 10082 ft 277 kts 183°
2026-04-23 13:44 49.15176 44.33283 9685 ft 274 kts 171°
2026-04-23 13:45 49.13965 44.33873 9690 ft 278 kts 161°
2026-04-23 13:45 49.11628 44.35639 9249 ft 277 kts 157°
2026-04-23 13:45 49.09923 44.36972 8614 ft 274 kts 157°
2026-04-23 13:45 49.08236 44.38292 7977 ft 271 kts 157°
2026-04-23 13:46 49.06581 44.39583 7333 ft 269 kts 157°
2026-04-23 13:46 49.04924 44.40871 6707 ft 266 kts 157°
2026-04-23 13:46 49.03282 44.42145 6107 ft 263 kts 158°
2026-04-23 13:46 49.01662 44.43405 5464 ft 260 kts 158°
2026-04-23 13:47 49.00055 44.44654 4811 ft 258 kts 158°
2026-04-23 13:47 48.98447 44.45902 4462 ft 255 kts 158°
2026-04-23 13:47 48.96986 44.47029 4342 ft 257 kts 158°
2026-04-23 13:47 48.95384 44.48263 4210 ft 257 kts 158°
2026-04-23 13:48 48.93795 44.49488 3882 ft 254 kts 159°
2026-04-23 13:48 48.92208 44.50669 3397 ft 255 kts 159°
2026-04-23 13:48 48.90638 44.51807 3185 ft 246 kts 159°
2026-04-23 13:48 48.89097 44.52913 2904 ft 240 kts 160°
2026-04-23 13:49 48.87635 44.53965 2762 ft 228 kts 160°
2026-04-23 13:49 48.86208 44.54765 2651 ft 209 kts 181°
2026-04-23 13:49 48.84873 44.54271 2586 ft 197 kts 217°
2026-04-23 13:49 48.84072 44.52678 2453 ft 189 kts 245°
2026-04-23 13:50 48.83540 44.50879 2320 ft 183 kts 244°
2026-04-23 13:50 48.82990 44.49179 2208 ft 177 kts 243°
2026-04-23 13:50 48.82447 44.47513 2132 ft 172 kts 242°
2026-04-23 13:50 48.81943 44.45934 2030 ft 162 kts 243°
2026-04-23 13:51 48.81464 44.44422 1842 ft 156 kts 243°
2026-04-23 13:51 48.81005 44.42974 1644 ft 151 kts 243°
2026-04-23 13:51 48.80564 44.41580 1446 ft 142 kts 243°
2026-04-23 13:51 48.80137 44.40230 1245 ft 144 kts 243°
2026-04-23 13:52 48.79711 44.38901 1065 ft 141 kts 244°
2026-04-23 13:52 48.79285 44.37558 874 ft 142 kts 244°
2026-04-23 13:52 48.78862 44.36219 677 ft 141 kts 244°
2026-04-23 13:52 48.78421 44.34823 502 ft 142 kts 244°
2026-04-23 13:53 48.78165 44.34005 469 ft 114 kts 244°
2026-04-23 13:53 48.77839 44.32978 430 ft 48 kts 244°
2026-04-23 13:53 48.77773 44.32773 432 ft 19 kts 244°
2026-04-23 13:53 48.77705 44.32561 423 ft 29 kts 244°
2026-04-23 13:54 48.77619 44.32298 416 ft 28 kts 243°
2026-04-23 13:54 48.77528 44.32026 413 ft 28 kts 243°
2026-04-23 13:54 48.77514 44.31843 413 ft 18 kts 309°
2026-04-23 13:54 48.77620 44.31779 413 ft 15 kts
2026-04-23 13:55 48.77691 44.31912 412 ft 17 kts 59°
2026-04-23 13:55 48.77699 44.31939 418 ft 0 kts 65°
2026-04-23 13:56 48.77700 44.31940 418 ft 1 kts 66°
2026-04-23 13:56 48.77713 44.31985 417 ft 9 kts 66°
2026-04-23 13:56 48.77751 44.32120 417 ft 18 kts 67°
2026-04-23 13:56 48.77818 44.32333 431 ft 25 kts 63°
2026-04-23 13:57 48.77886 44.32544 429 ft 20 kts 64°
2026-04-23 13:57 48.77938 44.32707 442 ft 15 kts 63°
2026-04-23 13:57 48.77976 44.32825 436 ft 10 kts 64°
2026-04-23 13:57 48.77999 44.32898 448 ft 6 kts 64°
2026-04-23 13:58 48.78035 44.33013 452 ft 23 kts 65°
2026-04-23 13:58 48.78140 44.33345 462 ft 31 kts 64°
2026-04-23 13:58 48.78209 44.33562 469 ft 20 kts 64°
2026-04-23 13:58 48.78263 44.33733 473 ft 16 kts 64°
2026-04-23 13:59 48.78294 44.33829 473 ft 13 kts 64°
2026-04-23 13:59 48.78313 44.33888 473 ft 15 kts 64°
2026-04-23 13:59 48.78368 44.34062 478 ft 17 kts 67°
2026-04-23 13:59 48.78411 44.34183 472 ft 13 kts 48°
2026-04-23 14:00 48.78468 44.34196 477 ft 13 kts 341°
2026-04-23 14:00 48.78577 44.34152 480 ft 12 kts 345°
2026-04-23 14:00 48.78654 44.34197 479 ft 14 kts 61°
2026-04-23 14:00 48.78693 44.34352 485 ft 17 kts 69°
2026-04-23 14:01 48.78705 44.34398 484 ft 0 kts 67°
2026-04-23 14:01 48.78707 44.34407 483 ft 0 kts 67°
2026-04-23 14:01 48.78718 44.34445 482 ft 9 kts 67°
2026-04-23 14:02 48.78753 44.34578 478 ft 15 kts 69°
2026-04-23 14:02 48.78790 44.34724 481 ft 14 kts 69°
2026-04-23 14:02 48.78823 44.34859 481 ft 13 kts 69°
2026-04-23 14:02 48.78854 44.34985 478 ft 12 kts 70°
2026-04-23 14:03 48.78873 44.35056 480 ft 6 kts 59°
2026-04-23 14:03 48.78879 44.35068 482 ft 0 kts 53°
2026-04-23 14:03 48.78890 44.35082 483 ft 6 kts 32°
2026-04-23 14:03 48.78921 44.35074 482 ft 4 kts 342°
2026-04-23 14:04 48.78943 44.35062 483 ft 3 kts 340°
2026-04-23 14:04 48.78960 44.35053 481 ft 2 kts 339°
2026-04-23 14:04 48.78970 44.35047 484 ft 1 kts 339°
2026-04-23 14:04 48.78973 44.35045 484 ft 0 kts 339°